Weather in Gennadi

Greece     36°01′25″N   27°55′23″E
temp.,
°C
wind,
m/s
gust,
m/s
humid.,
%
clouds,
%
prec.,
mm/h
press.,
hPa
HPBL,
m
27 september, mon
mon2700:00+23wnw446076 0.0 1014173
03:00+23wnw4568100 0.0 1013225
06:00+23wnw567656 0.0 1012265
09:00+24wnw456543 0.0 1012324
12:00+27w67535 0.0 1012318
15:00+26w99540 0.0 1010365
18:00+24wnw910590 0.0 1010364
21:00+23wnw79670 0.0 1010312
28 september, tue
tue2800:00+23wnw89730 0.0 1010275
03:00+23wnw79760 0.0 1009283
06:00+23wnw68700 0.0 1009246
09:00+24nw33590 0.0 1010210
12:00+26wsw34560 0.0 1010234
15:00+26w76550 0.0 1010444
18:00+25wnw77600 0.0 1009224
21:00+23wnw55700 0.0 1010172
29 september, wed
wed2900:00+23wnw45710 0.0 1010137
03:00+23wnw67720 0.0 1010227
06:00+23nw56695 0.0 1010223
09:00+24wnw336120 0.0 1011195
12:00+26w45542 0.0 1011249
15:00+27wnw77520 0.0 1010369
18:00+25wnw89570 0.0 1010351
21:00+24nw67640 0.0 1011302
30 september, thu
thu3000:00+24wnw78650 0.0 1010270
03:00+22wnw56630 0.0 1010187
06:00+22nw44641 0.0 1011191
09:00+23nw33625 0.0 1012236
12:00+25sw22532 0.0 1012492
15:00+25w33560 0.0 1012429
18:00+24w65580 0.0 1012370
21:00+23wnw55635 0.0 1012200
1 october, fri
fri100:00+23wnw34630 0.0 1012137
03:00+23nw22610 0.0 1012133
06:00+22wnw44700 0.0 1012186
09:00+23wnw33660 0.0 1013263
12:00+24wsw32570 0.0 1013481
15:00+24w65600 0.0 1012557
18:00+23w77660 0.0 1012267
21:00+22wnw67710 0.0 1013261